Location: Cardiff
(53.7833°N, 113.6000°W)
Time: 06:42:11
(UTC+00:00)

SO-50 - Pass Details

Date: 10 December 2023
Orbit: 608 x 660 km, 64.6° (Epoch: 02 March)

Event Time Altitude Azimuth Distance (km) Brightness Sun altitude
Exits shadow 11:38:39 16° 35° (NE) 1,703 ? -34.2°
Drops below altitude 10° 11:39:35 10° 40° (NE) 2,039 ? -34.1°
Sets 11:41:58 0° 47° (NE) 2,941 ? -33.7°
